Regional Weather Roundup
Issued by NWS

Home | Current Version | Previous Version | Graphics & Text | Print | Product List | Glossary On
Versions: 1 2 3 4 5 6 7 8 9 10 11 12 13 14 15 16 17 18 19 20 21 22 23 24 25 26 27
000
ASUS45 KSLC 191510
RWRUT

UTAH REGIONAL WEATHER ROUNDUP
NATIONAL WEATHER SERVICE SALT LAKE CITY UT
800 AM MST THU JAN 19 2017

UTZ001>011-023>025-191600-

NORTHERN UTAH

CITY           SKY/WX    TMP DP  RH WIND       PRES   REMARKS
BRIGHAM CITY     N/A     24  20  84 CALM      29.81R
HILL AFB       SNOW      28  25  86 E6        29.77S VSB 1/2 WCI  22
LOGAN          CLOUDY    19  15  84 CALM      29.78R FOG
OGDEN          SNOW      25  24  96 CALM      29.78R VSB 1/2
SALT LAKE CITY LGT SNOW  27  25  92 N3        29.78S FOG
TOOELE VALLEY  LGT SNOW  27  27 100 W5        29.79S VSB 1   WCI  21
WENDOVER       CLOUDY    23  19  86 CALM      29.79S
HEBER CITY     CLOUDY    32  21  64 SW15G21   29.74S WCI  22
WEST JORDAN    CLOUDY    33  33 100 S13       29.77S WCI  23

$$

UTZ011>015-024>027-191600-

CENTRAL/NORTHEAST UTAH

CITY           SKY/WX    TMP DP  RH WIND       PRES   REMARKS
PROVO AIRPORT  LGT SNOW  32  28  86 S3        29.82S FOG
MOAB/CANYONLAN CLOUDY    29  27  92 CALM      29.84S
DELTA          CLOUDY    32  32 100 S8        29.79S WCI  25
PRICE          CLOUDY    23  19  85 CALM      29.81S
RICHFIELD      CLOUDY    36  30  80 S7G15     29.81S WCI  30
ROOSEVELT      LGT SNOW  10   9  92 CALM      29.94S
VERNAL         CLOUDY    11   7  84 NW3       29.91S FOG

$$

UTZ013>016-019>022-027-191600-

SOUTHERN UTAH

CITY           SKY/WX    TMP DP  RH WIND       PRES   REMARKS
BRYCE CANYON   LGT SNOW  25  22  88 SE8       29.84S FOG     WCI  16
CEDAR CITY     CLOUDY    32  29  88 SW6       29.82S WCI  26
MILFORD        LGT SNOW  33  32  96 S16       29.80S FOG     WCI  23
ST GEORGE      CLOUDY    41  34  75 N3        29.92S
HANKSVILLE     CLOUDY    28  27  93 MISG      29.88S
KANAB          CLOUDY    34  34 100 CALM      29.93F
BLANDING       CLOUDY    28  26  94 NE3       29.97S

$$

REGIONAL REPORTS     COLORADO/ARIZONA

CITY           SKY/WX    TMP DP  RH WIND       PRES   REMARKS
CRAIG, CO      CLOUDY     2  -4  76 CALM      29.84F
GRAND JUNCTION CLOUDY    26  24  92 E15       29.86S WCI  14
RIFLE, CO      CLOUDY    19  16  88 CALM      29.89F
MONTROSE, CO   CLOUDY    24  19  81 SE5       29.91S WCI  18
CORTEZ, CO     CLOUDY    21  19  92 E6        29.92S WCI  13
COLORADO CITY  DRIZZLE   34  34 100 CALM      29.92S
PAGE, AZ       CLOUDY    37  29  72 CALM      29.87S
GRAND CANYON   SNOW      31  30  96 SW13      29.92S VSB 1/2 WCI  21
KINGMAN, AZ    CLOUDY    42  34  73 SE9       29.91S
FLAGSTAFF, AZ  LGT SNOW  29  27  92 SW14      29.94S FOG     WCI  18

$$

REGIONAL REPORTS    NEVADA/IDAHO/WYOMING

CITY           SKY/WX    TMP DP  RH WIND       PRES   REMARKS
LAS VEGAS, NV  CLOUDY    49  39  68 S9        29.84R
ELY, NY        LGT SNOW  28  27  96 S10       29.77S FOG     WCI  19
ELKO, NV       CLOUDY    33  27  78 W8        29.72R WCI  26
POCATELLO, ID  LGT SNOW  34  28  79 S15G21    29.71R WCI  24
BURLEY, ID     LGT SNOW  34  30  85 S22G28    29.67S FOG     WCI  22
FORT BRIDGER,  CLOUDY    12   9  85 CALM      29.74S
EVANSTON, WY   CLOUDY    26  14  60 VRB5      29.71S WCI  20
ROCK SPRINGS,  CLOUDY     3  -1  83 NE5       29.73F WCI  -6

$$




USA.gov is the U.S. government's official web portal to all federal, state and local government web resources and services.